Location: ???????
(55.8930°N, 38.0586°E)
Time: 21:58:24
(UTC+00:00)

NOSS 2-3 (D) - Pass Details

Date: 14 April 2024
Orbit: 497 x 1701 km, 63.3° (Epoch: 24 April)

Event Time Altitude Azimuth Distance (km) Brightness Sun altitude
Rises 00:21:55 0° 308° (NW) 3,101 7.1 -15.3°
Reaches altitude 10° 00:24:00 10° 304° (NW) 2,310 6.4 -15.1°
Maximum altitude 00:29:13 58° 226° (SW) 1,084 4.4 -14.6°
Drops below altitude 10° 00:36:19 10° 150° (SSE) 3,108 7.0 -13.9°
Sets 00:39:31 0° 147° (SSE) 4,265 7.8 -13.5°
